Time,TemperatureF,DewpointF,PressureIn,WindDirection,WindDirectionDegrees,WindSpeedMPH,WindSpeedGustMPH,Humidity,HourlyPrecipIn,Conditions,Clouds,dailyrainin,SoftwareType,DateUTC
2013-01-09 00:03:00,39.0,35.0,30.42,NE,37,0.0,0.0,86,0.00,,,0.00,,2013-01-09 05:03:00,
2013-01-09 00:12:00,39.0,35.0,30.42,NE,37,0.0,0.0,86,0.00,,,0.00,,2013-01-09 05:12:00,
2013-01-09 00:22:00,41.0,36.0,30.43,NE,48,0.0,1.0,83,0.00,,,0.00,,2013-01-09 05:22:00,
2013-01-09 00:33:00,41.0,36.0,30.41,NE,40,0.0,0.0,83,0.00,,,0.00,,2013-01-09 05:33:00,
2013-01-09 00:43:00,41.0,36.0,30.41,NE,40,0.0,0.0,83,0.00,,,0.00,,2013-01-09 05:43:00,
2013-01-09 00:52:00,41.0,36.0,30.41,NE,40,0.0,0.0,82,0.00,,,0.00,,2013-01-09 05:52:00,
2013-01-09 01:02:00,42.0,37.0,30.40,East,94,2.0,2.0,82,0.00,,,0.00,,2013-01-09 06:02:00,
2013-01-09 01:12:00,42.0,37.0,30.40,East,94,2.0,2.0,82,0.00,,,0.00,,2013-01-09 06:12:00,
2013-01-09 01:22:00,42.0,37.0,30.40,East,101,0.0,2.0,81,0.00,,,0.00,,2013-01-09 06:22:00,
2013-01-09 01:32:00,42.0,37.0,30.40,East,101,0.0,1.0,82,0.00,,,0.00,,2013-01-09 06:32:00,
2013-01-09 01:42:00,42.0,37.0,30.40,East,101,0.0,1.0,82,0.00,,,0.00,,2013-01-09 06:42:00,
2013-01-09 01:52:00,42.0,37.0,30.40,East,101,1.0,1.0,82,0.00,,,0.00,,2013-01-09 06:52:00,
2013-01-09 02:02:00,42.0,37.0,30.40,East,101,1.0,1.0,82,0.00,,,0.00,,2013-01-09 07:02:00,
2013-01-09 02:12:00,42.0,37.0,30.40,East,101,1.0,1.0,82,0.00,,,0.00,,2013-01-09 07:12:00,
2013-01-09 02:22:00,41.0,36.0,30.41,ESE,120,0.0,1.0,83,0.00,,,0.00,,2013-01-09 07:22:00,
2013-01-09 02:32:00,41.0,37.0,30.41,ESE,120,0.0,0.0,85,0.00,,,0.00,,2013-01-09 07:32:00,
2013-01-09 02:42:00,41.0,37.0,30.41,ESE,120,0.0,0.0,85,0.00,,,0.00,,2013-01-09 07:42:00,
2013-01-09 02:52:00,41.0,37.0,30.41,ESE,120,1.0,2.0,85,0.00,,,0.00,,2013-01-09 07:52:00,
2013-01-09 03:02:00,42.0,38.0,30.42,SE,140,0.0,2.0,84,0.00,,,0.00,,2013-01-09 08:02:00,
2013-01-09 03:12:00,42.0,38.0,30.42,SE,140,0.0,2.0,84,0.00,,,0.00,,2013-01-09 08:12:00,
2013-01-09 03:22:00,42.0,38.0,30.41,ENE,78,2.0,3.0,84,0.00,,,0.00,,2013-01-09 08:22:00,
2013-01-09 03:32:00,42.0,38.0,30.41,ENE,73,1.0,2.0,84,0.00,,,0.00,,2013-01-09 08:32:00,
2013-01-09 03:42:00,42.0,38.0,30.41,ENE,73,1.0,2.0,84,0.00,,,0.00,,2013-01-09 08:42:00,
2013-01-09 03:53:00,42.0,38.0,30.41,NW,325,0.0,2.0,84,0.00,,,0.00,,2013-01-09 08:53:00,
2013-01-09 04:02:00,41.0,37.0,30.42,NW,325,0.0,1.0,85,0.00,,,0.00,,2013-01-09 09:02:00,
2013-01-09 04:12:00,41.0,37.0,30.42,NW,325,0.0,1.0,85,0.00,,,0.00,,2013-01-09 09:12:00,
2013-01-09 04:22:00,41.0,37.0,30.41,NE,53,1.0,2.0,86,0.00,,,0.00,,2013-01-09 09:22:00,
2013-01-09 04:32:00,41.0,37.0,30.40,NE,53,1.0,2.0,86,0.00,,,0.00,,2013-01-09 09:32:00,
2013-01-09 04:42:00,41.0,37.0,30.40,NE,53,1.0,2.0,86,0.00,,,0.00,,2013-01-09 09:42:00,
2013-01-09 04:53:00,41.0,37.0,30.40,NE,53,1.0,2.0,86,0.00,,,0.00,,2013-01-09 09:53:00,
2013-01-09 05:02:00,41.0,37.0,30.40,NE,53,0.0,1.0,87,0.00,,,0.00,,2013-01-09 10:02:00,
2013-01-09 05:12:00,41.0,37.0,30.40,NE,53,0.0,1.0,87,0.00,,,0.00,,2013-01-09 10:12:00,
2013-01-09 05:22:00,41.0,37.0,30.40,NE,53,0.0,1.0,87,0.00,,,0.00,,2013-01-09 10:22:00,
2013-01-09 05:32:00,40.0,36.0,30.39,NE,53,0.0,1.0,87,0.00,,,0.00,,2013-01-09 10:32:00,
2013-01-09 05:42:00,40.0,36.0,30.39,NE,53,0.0,1.0,87,0.00,,,0.00,,2013-01-09 10:42:00,
2013-01-09 05:52:00,40.0,37.0,30.39,NE,53,0.0,1.0,88,0.00,,,0.00,,2013-01-09 10:52:00,
2013-01-09 06:02:00,39.0,36.0,30.38,NE,53,0.0,1.0,89,0.00,,,0.00,,2013-01-09 11:02:00,
2013-01-09 06:12:00,39.0,36.0,30.38,NE,53,0.0,1.0,89,0.00,,,0.00,,2013-01-09 11:12:00,
2013-01-09 06:22:00,38.0,35.0,30.39,NNE,30,1.0,2.0,90,0.00,,,0.00,,2013-01-09 11:22:00,
2013-01-09 06:33:00,38.0,35.0,30.40,South,175,0.0,3.0,90,0.00,,,0.00,,2013-01-09 11:33:00,
2013-01-09 06:42:00,38.0,35.0,30.40,South,175,0.0,3.0,90,0.00,,,0.00,,2013-01-09 11:42:00,
2013-01-09 06:53:00,38.0,36.0,30.39,South,175,0.0,2.0,91,0.00,,,0.00,,2013-01-09 11:53:00,
2013-01-09 07:03:00,38.0,35.0,30.40,North,355,1.0,3.0,90,0.00,,,0.00,,2013-01-09 12:03:00,
2013-01-09 07:12:00,38.0,35.0,30.40,North,355,1.0,3.0,90,0.00,,,0.00,,2013-01-09 12:12:00,
2013-01-09 07:23:00,39.0,36.0,30.41,NE,44,1.0,2.0,90,0.00,,,0.00,,2013-01-09 12:23:00,
2013-01-09 07:33:00,38.0,35.0,30.42,NE,44,0.0,1.0,89,0.00,,,0.00,,2013-01-09 12:33:00,
2013-01-09 07:43:00,38.0,35.0,30.42,NE,44,0.0,1.0,89,0.00,,,0.00,,2013-01-09 12:43:00,
2013-01-09 07:53:00,38.0,35.0,30.42,NE,44,0.0,1.0,90,0.00,,,0.00,,2013-01-09 12:53:00,
2013-01-09 08:03:00,38.0,36.0,30.43,NE,44,1.0,1.0,91,0.00,,,0.00,,2013-01-09 13:03:00,
2013-01-09 08:12:00,38.0,36.0,30.43,NE,44,1.0,1.0,91,0.00,,,0.00,,2013-01-09 13:12:00,
2013-01-09 08:23:00,39.0,37.0,30.44,NE,44,1.0,1.0,92,0.00,,,0.00,,2013-01-09 13:23:00,
2013-01-09 08:33:00,39.0,37.0,30.44,NE,44,0.0,1.0,92,0.00,,,0.00,,2013-01-09 13:33:00,
2013-01-09 08:43:00,39.0,37.0,30.44,NE,44,0.0,1.0,92,0.00,,,0.00,,2013-01-09 13:43:00,
2013-01-09 08:53:00,40.0,38.0,30.45,NE,44,1.0,2.0,91,0.00,,,0.00,,2013-01-09 13:53:00,
2013-01-09 09:03:00,41.0,38.0,30.45,NE,52,0.0,2.0,89,0.00,,,0.00,,2013-01-09 14:03:00,
2013-01-09 09:12:00,43.0,39.0,30.45,NE,52,0.0,1.0,87,0.00,,,0.00,,2013-01-09 14:12:00,
2013-01-09 09:23:00,43.0,39.0,30.45,NE,52,0.0,1.0,87,0.00,,,0.00,,2013-01-09 14:23:00,
2013-01-09 09:33:00,43.0,39.0,30.45,NE,52,0.0,2.0,86,0.00,,,0.00,,2013-01-09 14:33:00,
2013-01-09 09:43:00,43.0,39.0,30.45,NE,52,0.0,2.0,86,0.00,,,0.00,,2013-01-09 14:43:00,
2013-01-09 09:53:00,45.0,41.0,30.46,NE,52,0.0,1.0,85,0.00,,,0.00,,2013-01-09 14:53:00,
2013-01-09 10:03:00,46.0,42.0,30.46,ENE,78,0.0,2.0,85,0.00,,,0.00,,2013-01-09 15:03:00,
2013-01-09 10:13:00,46.0,42.0,30.46,ENE,78,0.0,2.0,85,0.00,,,0.00,,2013-01-09 15:13:00,
2013-01-09 10:23:00,48.0,43.0,30.47,SW,234,2.0,4.0,83,0.00,,,0.00,,2013-01-09 15:23:00,
2013-01-09 10:33:00,49.0,43.0,30.47,South,171,2.0,4.0,81,0.00,,,0.00,,2013-01-09 15:33:00,
2013-01-09 10:42:00,49.0,43.0,30.47,South,171,2.0,4.0,81,0.00,,,0.00,,2013-01-09 15:42:00,
2013-01-09 10:53:00,51.0,44.0,30.45,SSW,195,1.0,3.0,78,0.00,,,0.00,,2013-01-09 15:53:00,
2013-01-09 11:03:00,52.0,45.0,30.45,West,272,0.0,4.0,77,0.00,,,0.00,,2013-01-09 16:03:00,
2013-01-09 11:12:00,52.0,45.0,30.45,West,272,0.0,4.0,77,0.00,,,0.00,,2013-01-09 16:12:00,
2013-01-09 11:23:00,52.0,45.0,30.44,South,181,2.0,3.0,77,0.00,,,0.00,,2013-01-09 16:23:00,
2013-01-09 11:33:00,52.0,45.0,30.44,South,181,2.0,3.0,77,0.00,,,0.00,,2013-01-09 16:33:00,
2013-01-09 11:43:00,52.0,45.0,30.44,South,181,2.0,3.0,77,0.00,,,0.00,,2013-01-09 16:43:00,
2013-01-09 11:52:00,52.0,45.0,30.44,South,181,2.0,3.0,77,0.00,,,0.00,,2013-01-09 16:52:00,
2013-01-09 12:23:00,56.0,49.0,30.42,SW,234,6.0,8.0,76,0.00,,,0.00,,2013-01-09 17:23:00,
2013-01-09 12:33:00,56.0,48.0,30.42,SSW,209,5.0,8.0,75,0.00,,,0.00,,2013-01-09 17:33:00,
2013-01-09 12:43:00,56.0,48.0,30.42,SSW,209,5.0,8.0,75,0.00,,,0.00,,2013-01-09 17:43:00,
2013-01-09 12:53:00,56.0,48.0,30.41,SW,228,4.0,8.0,74,0.00,,,0.00,,2013-01-09 17:53:00,
2013-01-09 13:03:00,57.0,49.0,30.40,WSW,240,4.0,7.0,74,0.00,,,0.00,,2013-01-09 18:03:00,
2013-01-09 13:12:00,57.0,49.0,30.40,WSW,240,4.0,7.0,74,0.00,,,0.00,,2013-01-09 18:12:00,
2013-01-09 13:24:00,57.0,48.0,30.40,SW,219,4.0,8.0,73,0.00,,,0.00,,2013-01-09 18:24:00,
2013-01-09 13:33:00,57.0,48.0,30.40,WSW,242,5.0,8.0,73,0.00,,,0.00,,2013-01-09 18:33:00,
2013-01-09 13:43:00,57.0,48.0,30.40,WSW,242,5.0,8.0,73,0.00,,,0.00,,2013-01-09 18:43:00,
2013-01-09 13:53:00,57.0,48.0,30.40,WSW,243,3.0,7.0,73,0.00,,,0.00,,2013-01-09 18:53:00,
2013-01-09 14:03:00,57.0,48.0,30.39,South,182,3.0,7.0,72,0.00,,,0.00,,2013-01-09 19:03:00,
2013-01-09 14:13:00,57.0,48.0,30.39,South,182,3.0,7.0,72,0.00,,,0.00,,2013-01-09 19:13:00,
2013-01-09 14:23:00,57.0,48.0,30.39,SW,218,1.0,5.0,72,0.00,,,0.00,,2013-01-09 19:23:00,
2013-01-09 14:33:00,57.0,48.0,30.39,SW,233,2.0,3.0,72,0.00,,,0.00,,2013-01-09 19:33:00,
2013-01-09 14:43:00,57.0,48.0,30.39,SW,233,2.0,3.0,72,0.00,,,0.00,,2013-01-09 19:43:00,
2013-01-09 14:53:00,57.0,48.0,30.39,SW,223,1.0,3.0,73,0.00,,,0.00,,2013-01-09 19:53:00,
2013-01-09 15:03:00,57.0,48.0,30.40,SSW,197,2.0,3.0,73,0.00,,,0.00,,2013-01-09 20:03:00,
2013-01-09 15:12:00,57.0,48.0,30.40,SSW,197,2.0,3.0,73,0.00,,,0.00,,2013-01-09 20:12:00,
2013-01-09 15:23:00,57.0,48.0,30.40,SW,220,1.0,3.0,73,0.00,,,0.00,,2013-01-09 20:23:00,
2013-01-09 15:33:00,58.0,49.0,30.40,SSW,211,1.0,2.0,72,0.00,,,0.00,,2013-01-09 20:33:00,
2013-01-09 15:43:00,58.0,49.0,30.40,SSW,211,1.0,2.0,72,0.00,,,0.00,,2013-01-09 20:43:00,
2013-01-09 15:53:00,57.0,48.0,30.40,South,189,1.0,3.0,73,0.00,,,0.00,,2013-01-09 20:53:00,
2013-01-09 16:03:00,57.0,48.0,30.41,South,189,0.0,2.0,73,0.00,,,0.00,,2013-01-09 21:03:00,
2013-01-09 16:13:00,57.0,48.0,30.41,South,189,0.0,2.0,73,0.00,,,0.00,,2013-01-09 21:13:00,
2013-01-09 16:23:00,57.0,49.0,30.42,ENE,76,1.0,2.0,74,0.00,,,0.00,,2013-01-09 21:23:00,
2013-01-09 16:33:00,57.0,49.0,30.41,ENE,69,3.0,4.0,74,0.00,,,0.00,,2013-01-09 21:33:00,
2013-01-09 16:43:00,57.0,49.0,30.41,ENE,69,3.0,4.0,74,0.00,,,0.00,,2013-01-09 21:43:00,
2013-01-09 16:52:00,57.0,49.0,30.41,NE,50,3.0,5.0,74,0.00,,,0.00,,2013-01-09 21:52:00,
2013-01-09 17:03:00,57.0,49.0,30.40,ESE,109,0.0,2.0,75,0.00,,,0.00,,2013-01-09 22:03:00,
2013-01-09 17:12:00,57.0,49.0,30.40,ESE,109,0.0,2.0,75,0.00,,,0.00,,2013-01-09 22:12:00,
2013-01-09 17:23:00,57.0,49.0,30.40,ESE,109,1.0,2.0,75,0.00,,,0.00,,2013-01-09 22:23:00,
2013-01-09 17:33:00,56.0,49.0,30.39,SSE,155,2.0,4.0,77,0.00,,,0.00,,2013-01-09 22:33:00,
2013-01-09 17:43:00,56.0,49.0,30.39,SSE,155,2.0,4.0,77,0.00,,,0.00,,2013-01-09 22:43:00,
2013-01-09 17:52:00,56.0,49.0,30.40,ESE,120,1.0,2.0,78,0.00,,,0.00,,2013-01-09 22:52:00,
2013-01-09 18:03:00,55.0,49.0,30.40,South,170,0.0,2.0,79,0.00,,,0.00,,2013-01-09 23:03:00,
2013-01-09 18:13:00,55.0,49.0,30.40,South,170,0.0,2.0,79,0.00,,,0.00,,2013-01-09 23:13:00,
2013-01-09 18:23:00,54.0,48.0,30.40,South,170,0.0,2.0,80,0.00,,,0.00,,2013-01-09 23:23:00,
2013-01-09 18:33:00,54.0,49.0,30.40,South,170,1.0,1.0,82,0.00,,,0.00,,2013-01-09 23:33:00,
2013-01-09 18:43:00,54.0,49.0,30.40,South,170,1.0,1.0,82,0.00,,,0.00,,2013-01-09 23:43:00,
2013-01-09 18:52:00,52.0,47.0,30.40,SW,214,1.0,2.0,83,0.00,,,0.00,,2013-01-09 23:52:00,
2013-01-09 19:03:00,52.0,48.0,30.41,SW,214,0.0,1.0,85,0.00,,,0.00,,2013-01-10 00:03:00,
2013-01-09 19:12:00,52.0,48.0,30.41,SW,214,0.0,1.0,85,0.00,,,0.00,,2013-01-10 00:12:00,
2013-01-09 19:22:00,51.0,47.0,30.41,SW,214,1.0,1.0,85,0.00,,,0.00,,2013-01-10 00:22:00,
2013-01-09 19:32:00,51.0,47.0,30.41,SW,214,1.0,1.0,86,0.00,,,0.00,,2013-01-10 00:32:00,
2013-01-09 19:42:00,51.0,47.0,30.41,SW,214,1.0,1.0,86,0.00,,,0.00,,2013-01-10 00:42:00,
2013-01-09 19:53:00,50.0,46.0,30.42,SW,214,0.0,1.0,87,0.00,,,0.00,,2013-01-10 00:53:00,
2013-01-09 20:02:00,50.0,47.0,30.43,SW,214,0.0,1.0,89,0.00,,,0.00,,2013-01-10 01:02:00,
2013-01-09 20:12:00,50.0,47.0,30.43,SW,214,0.0,1.0,89,0.00,,,0.00,,2013-01-10 01:12:00,
2013-01-09 20:22:00,49.0,46.0,30.43,SW,214,1.0,2.0,89,0.00,,,0.00,,2013-01-10 01:22:00,
2013-01-09 20:33:00,49.0,46.0,30.44,SW,214,0.0,2.0,90,0.00,,,0.00,,2013-01-10 01:33:00,
2013-01-09 20:43:00,49.0,46.0,30.44,SW,214,0.0,2.0,90,0.00,,,0.00,,2013-01-10 01:43:00,
2013-01-09 20:53:00,48.0,45.0,30.44,SW,214,0.0,2.0,90,0.00,,,0.00,,2013-01-10 01:53:00,
2013-01-09 21:03:00,48.0,45.0,30.44,SW,214,1.0,2.0,90,0.00,,,0.00,,2013-01-10 02:03:00,
2013-01-09 21:12:00,48.0,45.0,30.44,SW,214,1.0,2.0,90,0.00,,,0.00,,2013-01-10 02:12:00,
2013-01-09 21:22:00,47.0,45.0,30.44,SSW,204,0.0,3.0,91,0.00,,,0.00,,2013-01-10 02:22:00,
2013-01-09 21:32:00,47.0,45.0,30.44,SSW,204,0.0,2.0,91,0.00,,,0.00,,2013-01-10 02:32:00,
2013-01-09 21:42:00,47.0,45.0,30.44,SSW,204,0.0,2.0,91,0.00,,,0.00,,2013-01-10 02:42:00,
2013-01-09 21:53:00,47.0,45.0,30.44,SSW,204,0.0,2.0,91,0.00,,,0.00,,2013-01-10 02:53:00,
2013-01-09 22:03:00,47.0,45.0,30.45,NE,40,1.0,2.0,93,0.00,,,0.00,,2013-01-10 03:03:00,
2013-01-09 22:12:00,47.0,45.0,30.45,NE,40,1.0,2.0,93,0.00,,,0.00,,2013-01-10 03:12:00,
2013-01-09 22:22:00,47.0,45.0,30.45,NNW,336,1.0,2.0,92,0.00,,,0.00,,2013-01-10 03:22:00,
2013-01-09 22:33:00,47.0,45.0,30.45,NNW,336,0.0,1.0,92,0.00,,,0.00,,2013-01-10 03:33:00,
2013-01-09 22:42:00,47.0,45.0,30.45,NNW,336,0.0,1.0,92,0.00,,,0.00,,2013-01-10 03:42:00,
2013-01-09 22:52:00,47.0,45.0,30.45,NNW,336,0.0,1.0,92,0.00,,,0.00,,2013-01-10 03:52:00,
2013-01-09 23:02:00,48.0,46.0,30.46,NE,51,1.0,2.0,94,0.00,,,0.00,,2013-01-10 04:02:00,
2013-01-09 23:12:00,48.0,46.0,30.46,NE,51,1.0,2.0,94,0.00,,,0.00,,2013-01-10 04:12:00,
2013-01-09 23:22:00,48.0,46.0,30.46,NE,51,1.0,2.0,94,0.00,,,0.00,,2013-01-10 04:22:00,
2013-01-09 23:32:00,48.0,46.0,30.46,NE,51,0.0,1.0,93,0.00,,,0.00,,2013-01-10 04:32:00,
2013-01-09 23:43:00,48.0,46.0,30.46,NE,51,0.0,1.0,93,0.00,,,0.00,,2013-01-10 04:43:00,
2013-01-09 23:52:00,48.0,46.0,30.46,NE,51,0.0,1.0,94,0.00,,,0.00,,2013-01-10 04:52:00,